Temperature
28 29 29 29 29 28 28 29 29 29 29 28 27 26 25 24 23 22 21 21 20 19 18 18 18 17 17 17 17 17 16 16 16 16 16 16 16 16 16 16 16 16 16 15
27 28 28 28 28 28 28 29 29 29 28 27 26 25 24 23 22 22 21 20 20 19 18 18 17 17 17 17 17 16 16 16 16 16 16 16 16 16 16 15 15 15 15 15
27 27 27 27 28 28 28 28 29 28 28 26 25 24 23 22 22 21 21 20 19 18 18 17 17 17 17 17 16 16 16 16 16 16 16 16 16 15 15 15 15 15 15 14
27 26 25 27 27 28 27 27 27 26 26 25 24 22 21 20 20 20 19 18 18 18 17 17 17 17 16 16 16 16 16 16 16 16 15 15 15 15 15 15 14 14 14 14
26 25 26 25 25 26 26 26 26 25 24 23 22 22 21 19 19 18 18 18 17 17 17 17 17 16 16 16 16 15 15 15 15 15 15 15 15 15 14 14 14 13 13 13
25 25 25 26 25 24 25 24 24 24 23 23 22 24 22 18 18 17 17 17 17 17 17 16 16 16 16 16 15 15 15 15 15 15 15 15 14 14 14 13 13 13 12 12
24 24 25 24 23 24 24 24 23 22 22 22 22 22 19 17 17 16 16 16 16 16 16 16 16 16 15 15 15 15 15 14 14 14 14 14 13 13 13 13 12 12 11 11
24 24 24 22 23 23 22 21 21 21 20 20 19 18 17 16 16 15 15 16 16 15 15 15 15 15 15 15 14 14 14 14 13 13 13 13 13 12 12 12 11 11 11 10
23 23 20 20 20 19 19 19 19 19 19 18 17 17 16 15 15 15 15 15 15 15 15 15 14 15 14 14 14 13 13 13 13 13 12 12 12 11 11 11 11 10 10 9
21 20 19 19 18 18 18 18 18 17 17 17 17 16 15 15 15 14 14 14 14 14 14 14 14 14 14 13 13 13 13 12 12 11 11 11 11 10 10 10 10 9 9 8
20 19 19 18 17 17 16 16 16 16 16 16 15 15 15 14 14 14 13 13 13 13 13 13 13 13 13 13 13 12 12 11 11 11 10 10 10 9 9 9 9 9 8 8
20 19 19 17 16 15 15 15 15 15 15 15 15 14 14 13 13 13 13 13 13 13 12 12 12 12 12 12 12 12 11 11 10 10 10 9 9 9 8 8 8 8 8 7
17 17 16 15 15 14 14 14 14 14 14 13 13 13 13 13 13 12 12 12 12 12 12 11 11 11 11 11 11 11 11 10 10 9 9 8 8 8 7 7 7 7 7 7
15 15 15 15 14 14 13 13 13 13 13 12 12 12 12 12 12 12 11 11 11 11 11 11 11 10 10 10 10 10 10 10 9 9 8 8 8 7 7 6 6 5 6 6
14 14 14 13 13 13 12 12 12 12 12 12 11 11 11 11 11 11 11 11 10 10 10 10 10 10 10 10 10 9 9 9 8 8 8 8 7 7 7 6 6 5 5 5
13 13 13 13 12 12 12 12 11 11 11 11 11 11 11 10 10 10 10 10 10 10 9 9 9 9 9 9 9 9 8 8 8 8 7 7 7 7 7 6 6 6 5 5
13 13 13 12 12 12 11 11 10 10 10 10 10 10 10 9 9 9 9 9 9 9 9 9 9 9 9 9 9 8 8 8 8 7 7 7 7 7 7 6 6 6 5 5
13 12 12 12 11 11 10 10 10 10 9 9 9 9 9 9 9 9 9 9 9 8 8 8 9 8 8 8 8 8 8 7 8 7 7 7 7 7 7 6 6 6 5 5
12 11 11 11 10 10 10 9 9 9 9 9 8 8 8 8 8 8 8 9 8 8 8 8 8 8 8 8 8 8 8 8 7 7 7 7 7 7 7 6 6 6 5 5
11 10 10 10 10 9 9 9 9 8 8 8 8 8 8 8 8 8 8 8 8 8 8 8 8 8 8 8 8 8 8 8 8 7 7 7 7 7 7 6 6 6 6 5
10 10 10 9 9 9 9 8 8 8 8 8 8 8 8 8 8 8 9 8 8 8 8 8 8 8 8 8 8 8 8 8 8 7 7 7 7 7 7 6 6 6 5 5
9 9 9 9 9 8 8 8 8 8 8 8 8 8 8 8 8 8 8 8 8 8 8 8 8 8 8 8 8 8 8 8 8 7 7 7 7 7 6 6 6 6 5 5
9 9 9 9 9 8 8 8 8 8 8 8 8 8 8 8 8 8 8 8 8 8 8 8 8 8 8 8 8 8 8 8 7 7 7 7 7 6 6 6 6 6 5 5
9 9 8 8 8 8 8 8 8 8 8 8 8 8 8 8 8 8 8 8 8 8 8 8 8 8 8 8 8 8 7 7 7 7 7 7 7 6 6 6 6 6 5 5
9 8 8 8 8 8 8 8 8 8 8 8 8 8 8 8 8 8 7 7 8 7 8 7 7 7 8 8 8 7 7 7 7 7 7 7 7 6 6 6 6 5 5 5
8 8 8 8 9 8 9 9 9 9 9 8 8 8 8 8 8 8 7 7 7 7 7 7 7 7 7 7 7 7 7 7 7 7 7 7 6 6 6 6 5 5 5 5
8 8 8 9 9 9 9 9 9 9 9 9 8 8 8 8 8 8 7 7 7 7 7 7 7 7 7 7 7 7 7 7 7 7 7 6 6 6 6 5 5 5 5 5
Wind_Speed
10 6 9 12 14 15 15 13 10 8 7 5 5 5 6 7 8 9 9 9 9 9 9 8 8 8 7 7 7 7 7 7 7 7 6 6 6 6 6 6 6 6 6 5
10 9 10 11 12 13 14 12 11 9 5 2 5 5 6 7 8 8 8 9 8 8 9 9 8 8 8 7 7 7 7 7 7 7 7 6 6 6 6 6 5 6 5 5
11 10 11 14 13 13 12 10 10 10 4 5 5 5 6 6 7 7 7 7 8 8 7 7 7 8 8 8 8 8 7 7 7 7 7 6 7 7 6 6 7 7 7 7
9 9 15 6 3 7 9 7 5 2 3 4 4 5 5 5 5 6 6 6 6 6 7 7 7 8 8 8 8 8 8 7 7 8 8 8 8 8 8 7 8 8 8 8
10 14 12 5 5 7 8 7 5 4 5 5 6 7 6 4 4 5 5 5 5 5 6 6 7 8 8 8 8 8 8 7 7 8 9 9 9 9 8 9 9 9 8 9
11 14 14 7 7 4 5 7 5 5 6 6 7 6 4 5 4 4 4 4 4 5 6 6 6 7 8 8 8 8 8 8 8 8 9 10 10 10 9 10 10 10 10 9
14 13 8 4 5 6 9 4 5 4 4 5 3 2 5 5 5 4 4 5 5 6 6 5 6 7 8 7 7 7 8 9 9 9 10 11 11 10 11 11 11 11 12 10
12 14 9 5 5 5 2 5 4 3 3 3 4 5 5 5 5 5 5 6 6 6 6 6 6 8 8 8 8 9 10 11 11 10 10 10 12 11 11 12 13 12 12 11
4 2 5 4 2 3 2 3 3 2 3 4 4 5 5 5 5 5 5 6 6 7 8 7 6 8 10 9 10 11 11 11 11 11 11 11 11 12 10 10 10 10 10 10
2 4 4 4 3 3 3 3 2 2 3 4 4 5 6 6 6 6 6 6 7 8 9 8 8 9 10 10 11 12 13 12 11 11 11 11 9 8 9 9 9 9 9 10
3 4 5 4 3 3 4 4 3 3 3 3 5 6 6 6 6 6 6 6 7 9 10 10 9 10 10 10 12 13 13 12 12 11 12 12 11 10 9 8 7 8 9 9
2 4 2 3 3 3 4 4 4 4 3 4 5 6 6 6 6 6 7 8 9 10 10 11 11 11 10 10 12 13 13 12 11 11 11 11 13 13 19 15 18 17 14 11
1 2 3 3 3 3 3 4 4 4 4 4 4 5 6 7 7 7 8 9 10 10 11 11 11 11 11 11 12 13 13 12 11 11 11 11 12 13 13 14 19 19 17 17
2 3 3 3 3 4 4 4 5 5 4 5 5 6 7 8 9 9 10 10 11 12 12 12 12 12 11 12 13 14 14 13 12 10 10 11 11 12 12 13 13 11 12 14
2 2 3 4 4 4 5 6 6 6 6 6 7 8 9 10 11 11 11 12 13 13 13 13 13 12 11 13 14 14 13 11 10 10 10 10 10 11 11 13 12 12 11 10
3 4 5 5 5 5 6 6 7 7 7 8 9 10 11 12 13 12 12 12 13 13 12 12 13 12 12 13 14 12 12 14 12 11 11 11 10 11 11 11 11 10 9 9
6 6 6 6 6 6 6 6 7 8 9 10 11 12 13 14 14 13 12 12 12 12 12 12 13 12 12 12 12 11 11 12 12 11 10 10 10 10 9 9 9 9 8 7
5 5 6 7 7 8 8 8 9 10 10 11 12 13 13 14 14 13 13 13 14 13 12 12 12 12 12 12 11 11 11 10 10 10 10 9 9 9 9 9 9 9 9 7
8 8 9 9 10 10 10 11 11 11 12 12 13 13 13 13 14 14 13 13 13 13 10 11 12 12 12 11 10 9 10 11 10 10 10 9 9 8 8 8 8 8 8 7
10 11 12 13 13 13 13 13 13 13 12 13 14 14 14 14 13 14 13 11 9 9 11 11 11 12 12 10 8 10 11 11 11 10 10 9 8 8 8 8 8 7 6 6
12 13 14 14 14 14 14 14 14 14 13 13 14 15 14 13 12 12 12 11 9 9 11 9 9 9 9 9 6 9 9 9 9 9 9 8 8 7 7 7 7 6 5 5
13 14 15 15 15 14 13 13 14 15 14 13 14 14 14 13 12 11 10 9 9 7 7 8 8 9 8 8 7 8 8 8 8 7 7 7 6 6 7 7 6 6 5 4
13 14 14 15 15 15 15 14 14 13 14 13 13 13 12 11 10 10 10 8 9 7 7 8 10 10 7 7 7 7 8 7 7 7 6 6 6 6 6 6 6 5 5 4
14 14 14 15 15 15 15 14 13 12 13 12 11 11 10 10 9 9 9 9 9 8 8 10 10 7 5 6 7 7 7 6 6 6 6 5 5 6 6 6 5 5 5 4
14 15 15 15 14 12 13 13 13 12 12 11 11 10 8 8 9 9 9 10 9 8 9 9 7 4 5 5 6 6 6 5 5 5 6 5 5 5 5 5 4 4 4 4
13 12 11 11 11 10 10 10 10 9 10 10 9 8 8 8 9 9 8 9 10 7 7 7 6 5 5 5 5 5 6 6 6 5 5 5 5 4 4 4 5 4 4 4
13 12 10 10 10 9 9 9 9 9 9 9 9 8 8 8 7 7 8 7 7 6 6 5 5 5 4 4 5 5 5 5 5 5 5 5 4 4 4 4 4 4 4 4
Wind_Direction
244 228 207 210 206 205 218 234 241 230 229 198 176 169 162 159 157 160 160 162 162 161 162 165 166 167 169 168 168 169 171 171 172 175 170 169 169 170 170 167 166 162 161 161
221 220 218 218 212 210 216 227 237 239 226 129 133 148 152 157 159 161 162 163 163 163 163 165 168 169 166 166 166 164 162 159 155 153 151 152 150 148 149 148 145 140 143 141
218 207 209 218 215 214 215 224 236 237 210 142 143 140 147 154 158 157 156 157 162 164 163 164 169 169 166 165 161 159 158 153 146 142 140 137 138 133 132 130 126 121 118 117
221 202 224 206 182 220 219 218 225 211 149 144 131 128 128 134 144 143 143 149 156 160 156 159 163 162 158 155 157 158 156 150 143 138 134 130 127 121 116 112 108 102 99 101
224 223 224 185 179 197 207 210 206 192 158 144 136 140 128 111 117 128 136 144 148 149 147 148 155 157 154 152 153 150 146 142 140 137 133 129 124 120 115 110 104 99 98 98
227 235 231 201 153 181 214 211 171 171 163 159 175 201 137 116 106 108 115 121 128 132 135 140 148 152 153 152 150 146 142 138 132 130 128 124 120 115 111 107 102 97 90 88
227 231 232 116 144 183 218 199 132 158 167 178 185 53 102 112 103 101 104 108 115 117 121 125 134 139 139 136 134 127 124 122 118 117 119 118 114 111 110 107 103 98 93 85
226 231 220 119 172 204 79 86 122 137 149 136 110 108 117 115 113 113 112 113 117 115 108 111 124 130 127 122 120 118 117 113 111 111 112 113 113 112 112 113 108 103 98 91
228 216 84 103 91 64 72 106 115 127 122 137 140 135 129 124 117 114 114 114 116 115 107 102 111 123 120 117 119 118 113 110 108 106 104 107 112 115 114 114 113 111 108 104
175 133 119 107 90 79 79 87 88 115 141 147 147 146 141 132 121 118 120 120 117 112 106 99 97 102 109 118 121 118 113 110 108 105 102 97 95 100 106 110 113 114 114 113
191 144 136 116 84 82 85 84 87 100 122 142 149 146 138 131 126 123 124 124 119 115 111 106 102 99 105 114 119 117 113 111 108 104 101 92 81 69 82 75 84 107 115 118
201 150 156 126 95 88 87 83 85 96 105 121 138 139 135 129 125 122 118 115 111 111 111 110 107 104 106 111 117 118 116 113 112 111 108 105 100 83 60 67 63 61 64 86
93 105 102 117 107 93 87 84 83 92 106 117 125 133 132 128 124 119 116 114 114 113 111 110 109 105 106 110 112 113 115 115 115 116 116 115 114 112 105 81 67 63 66 78
132 135 135 125 108 99 94 90 90 96 104 114 122 125 129 128 124 120 117 116 115 112 109 109 108 106 110 114 114 114 114 114 117 119 120 121 121 121 120 118 111 97 80 81
157 155 146 124 111 107 109 108 107 103 103 105 112 118 122 124 120 116 115 116 114 112 112 113 111 111 116 117 116 117 117 119 117 117 119 119 121 121 119 117 116 116 116 108
144 136 136 132 126 122 118 114 113 108 107 109 109 112 113 112 111 111 114 119 118 115 116 115 113 115 118 118 118 115 114 115 119 122 121 121 121 121 122 123 123 124 125 129
163 160 150 144 136 127 117 113 114 116 114 113 112 112 111 110 109 109 110 111 110 111 113 114 116 119 120 121 121 120 121 121 123 124 123 124 124 125 127 128 126 125 118 101
163 154 149 141 135 125 117 113 114 114 115 116 117 116 116 114 112 110 110 110 107 105 108 114 118 121 121 121 120 122 125 129 127 122 122 124 126 128 128 125 125 123 123 126
132 130 126 123 121 118 115 112 110 110 113 115 115 113 111 111 113 113 111 110 109 108 110 113 118 123 122 122 125 129 127 126 123 122 123 127 133 131 132 133 133 133 133 134
127 123 119 115 113 113 111 110 110 110 111 112 113 113 114 115 116 115 112 107 105 113 123 126 130 126 129 134 143 131 130 131 130 133 138 142 137 138 139 137 136 136 135 133
124 120 118 115 112 110 111 113 113 114 115 116 117 118 118 119 120 121 119 112 108 118 127 133 132 131 133 136 152 133 134 135 136 140 143 143 143 144 141 140 140 140 140 139
121 118 117 117 116 115 115 117 117 117 116 116 117 119 120 120 118 113 106 112 121 130 134 129 125 116 129 144 142 136 137 138 140 143 145 146 149 152 152 151 150 149 147 147
119 118 118 120 119 118 117 117 117 116 116 117 118 121 121 121 123 123 118 117 126 131 126 114 110 118 141 147 132 135 138 141 145 149 151 153 157 159 159 161 159 157 159 164
120 120 120 120 119 118 116 117 116 116 117 118 118 120 122 121 118 113 111 109 103 115 110 106 117 128 161 138 136 138 139 141 147 153 155 156 159 160 163 167 167 169 172 183
118 119 119 121 120 119 119 121 120 122 122 119 118 119 117 114 115 113 114 116 119 121 116 119 131 159 161 135 138 141 147 148 153 158 159 161 166 167 174 179 177 182 188 194
118 117 117 117 118 122 126 126 126 126 124 121 118 114 110 110 113 117 121 124 124 124 126 134 144 170 149 141 144 152 152 149 159 173 169 170 175 182 190 189 192 204 207 212
117 116 118 117 119 121 123 124 124 124 123 122 120 119 119 121 122 125 128 132 138 139 137 143 151 156 151 149 151 156 158 163 172 178 179 184 188 195 198 207 216 216 222 222
Height
1440 1436 1439 1443 1446 1450 1453 1451 1454 1453 1454 1455 1459 1463 1468 1472 1475 1478 1481 1484 1486 1488 1491 1493 1495 1496 1498 1500 1501 1503 1504 1506 1508 1510 1513 1515 1517 1519 1521 1523 1525 1527 1530 1532
1445 1440 1441 1444 1443 1445 1447 1447 1448 1449 1453 1455 1461 1465 1468 1472 1475 1477 1480 1482 1485 1487 1489 1491 1493 1495 1497 1498 1500 1501 1503 1505 1507 1509 1511 1513 1515 1517 1519 1521 1523 1525 1527 1529
1446 1441 1445 1451 1443 1443 1445 1445 1446 1450 1452 1457 1461 1465 1469 1472 1474 1476 1479 1481 1484 1486 1488 1490 1492 1494 1495 1497 1498 1500 1502 1504 1506 1508 1510 1511 1514 1515 1517 1519 1521 1523 1525 1527
1442 1450 1461 1443 1440 1441 1444 1446 1448 1451 1455 1459 1463 1468 1471 1473 1475 1477 1479 1481 1483 1485 1486 1488 1490 1492 1494 1496 1498 1499 1501 1503 1505 1507 1509 1510 1512 1514 1516 1518 1520 1522 1524 1526
1443 1449 1446 1445 1444 1445 1447 1450 1451 1453 1458 1462 1465 1468 1471 1474 1475 1477 1478 1480 1482 1484 1485 1487 1489 1491 1493 1495 1497 1499 1501 1502 1504 1506 1508 1509 1511 1513 1515 1517 1519 1521 1523 1525
1445 1450 1452 1441 1443 1447 1449 1454 1453 1456 1459 1462 1464 1462 1468 1474 1475 1477 1478 1480 1481 1483 1484 1486 1488 1490 1492 1494 1496 1498 1499 1501 1503 1505 1507 1508 1510 1513 1515 1517 1519 1521 1523 1526
1444 1446 1440 1442 1446 1449 1456 1453 1456 1458 1460 1462 1463 1465 1471 1473 1475 1476 1478 1479 1481 1482 1484 1485 1487 1489 1491 1493 1495 1497 1499 1501 1502 1504 1506 1508 1510 1513 1515 1518 1520 1522 1524 1526
1442 1446 1447 1447 1447 1449 1452 1456 1457 1460 1462 1464 1466 1469 1471 1473 1474 1476 1478 1479 1480 1482 1483 1485 1487 1489 1490 1492 1495 1496 1498 1500 1502 1505 1507 1509 1511 1513 1516 1519 1520 1523 1525 1527
1440 1445 1450 1451 1452 1455 1456 1457 1459 1461 1463 1465 1467 1469 1471 1472 1474 1476 1477 1479 1480 1482 1483 1485 1487 1489 1490 1492 1494 1496 1498 1500 1503 1505 1507 1510 1512 1515 1517 1520 1522 1524 1527 1529
1445 1448 1452 1454 1456 1457 1458 1459 1461 1462 1463 1465 1467 1468 1470 1472 1474 1476 1477 1478 1480 1481 1483 1484 1487 1489 1490 1492 1494 1497 1498 1501 1503 1506 1508 1511 1514 1517 1520 1522 1524 1526 1528 1530
1447 1450 1453 1455 1457 1458 1459 1460 1461 1462 1463 1465 1466 1468 1470 1471 1473 1476 1477 1478 1479 1481 1482 1484 1487 1489 1491 1493 1495 1497 1499 1502 1504 1507 1510 1512 1515 1518 1521 1524 1526 1529 1531 1533
1445 1451 1452 1456 1459 1459 1460 1460 1461 1462 1464 1465 1466 1467 1469 1471 1473 1475 1477 1478 1479 1481 1483 1486 1488 1490 1492 1494 1496 1498 1500 1504 1507 1510 1513 1515 1517 1520 1524 1527 1529 1532 1534 1535
1451 1453 1454 1457 1459 1460 1460 1461 1462 1462 1463 1465 1466 1467 1468 1470 1472 1474 1476 1478 1480 1482 1484 1487 1489 1491 1494 1496 1498 1500 1502 1506 1509 1512 1516 1519 1521 1523 1526 1530 1533 1535 1537 1539
1453 1454 1455 1457 1459 1460 1460 1461 1461 1462 1463 1464 1465 1466 1468 1470 1473 1475 1477 1479 1482 1484 1486 1488 1491 1493 1496 1498 1501 1503 1506 1509 1512 1516 1519 1522 1525 1528 1530 1533 1536 1538 1541 1543
1453 1454 1456 1457 1459 1460 1460 1461 1462 1463 1463 1464 1465 1467 1468 1470 1473 1476 1478 1481 1483 1486 1488 1491 1493 1496 1498 1501 1503 1506 1509 1512 1516 1519 1523 1526 1529 1532 1535 1537 1539 1541 1543 1546
1453 1454 1456 1457 1459 1460 1461 1461 1462 1463 1464 1465 1466 1468 1470 1472 1475 1478 1481 1484 1486 1489 1491 1494 1496 1499 1502 1504 1507 1510 1513 1516 1519 1523 1526 1529 1533 1535 1538 1540 1543 1546 1547 1549
1452 1454 1456 1457 1459 1460 1461 1462 1463 1464 1465 1466 1468 1470 1472 1474 1478 1481 1484 1487 1490 1492 1495 1498 1500 1503 1506 1509 1512 1514 1517 1520 1523 1527 1530 1533 1536 1539 1541 1544 1546 1548 1550 1551
1451 1454 1455 1457 1459 1460 1462 1463 1464 1465 1467 1469 1470 1473 1475 1478 1481 1485 1488 1492 1494 1497 1500 1503 1505 1508 1511 1513 1516 1518 1521 1524 1527 1530 1533 1536 1539 1542 1544 1546 1548 1550 1551 1552
1452 1454 1456 1458 1460 1461 1463 1465 1466 1468 1470 1472 1474 1476 1479 1482 1486 1489 1493 1496 1499 1502 1505 1507 1510 1513 1515 1518 1520 1523 1526 1528 1531 1533 1536 1538 1541 1544 1546 1548 1550 1552 1553 1554
1453 1455 1457 1459 1461 1463 1465 1467 1469 1472 1474 1476 1478 1481 1484 1488 1491 1494 1497 1501 1504 1506 1509 1511 1514 1517 1519 1521 1524 1527 1529 1532 1534 1536 1539 1542 1544 1546 1548 1549 1551 1553 1554 1555
1454 1457 1459 1461 1464 1467 1469 1472 1474 1476 1479 1481 1484 1487 1490 1493 1497 1499 1502 1505 1508 1510 1513 1515 1518 1520 1523 1525 1527 1530 1532 1534 1536 1539 1541 1543 1545 1547 1549 1550 1552 1553 1554 1555
1457 1459 1462 1465 1468 1471 1474 1476 1479 1481 1484 1487 1490 1492 1495 1498 1501 1504 1507 1509 1512 1514 1517 1519 1521 1523 1525 1527 1530 1532 1534 1536 1538 1540 1542 1544 1546 1547 1549 1551 1552 1553 1554 1555
1459 1463 1466 1469 1472 1475 1478 1481 1484 1486 1489 1492 1495 1498 1500 1503 1505 1508 1510 1513 1515 1517 1520 1522 1523 1525 1527 1530 1532 1534 1535 1537 1539 1541 1543 1545 1546 1548 1549 1550 1551 1552 1553 1554
1463 1467 1470 1474 1477 1480 1483 1486 1489 1492 1495 1497 1500 1502 1505 1507 1509 1512 1513 1516 1518 1520 1522 1524 1526 1528 1530 1533 1534 1535 1537 1538 1540 1542 1543 1545 1546 1547 1549 1550 1551 1552 1552 1553
1468 1472 1475 1478 1481 1485 1488 1491 1494 1497 1499 1502 1504 1507 1509 1511 1513 1515 1517 1519 1521 1523 1525 1526 1528 1530 1532 1534 1535 1536 1538 1539 1541 1542 1543 1544 1546 1547 1548 1549 1550 1551 1551 1552
1473 1477 1480 1483 1486 1489 1492 1495 1498 1501 1503 1505 1508 1510 1512 1514 1516 1518 1520 1522 1523 1525 1527 1529 1530 1532 1534 1535 1536 1537 1538 1539 1540 1541 1543 1544 1545 1546 1547 1548 1548 1549 1550 1550
1479 1482 1485 1488 1491 1494 1496 1499 1502 1504 1506 1508 1511 1513 1515 1517 1519 1521 1523 1524 1526 1527 1529 1530 1532 1533 1534 1535 1536 1537 1538 1539 1540 1541 1542 1543 1544 1544 1545 1546 1546 1547 1547 1548